Вернуться в каталог

STARLINK-6350

АктивенСвязьVLEO
NORAD 57226·PAYLOAD·🇺🇸 United States

Запущен Jul 7, 2023 с Vandenberg Space Force Base

Loading…

Ближайшие Пролёты (ближайшие 24 часа)

TLE

СвежийSource: CelesTrak SupGP

Эпоха: Sep 14, 2026, 20:41 UTC

1 57226C 23094J   26257.86229167  .00057232  00000+0  20727-2 0  2578
2 57226  43.0048  42.5935 0001989 278.3522 109.5354 15.27552307    12

Отслеживайте STARLINK-6350 в реальном времени с AllMySat

Download on the App Store